Вернуться в каталог

STARLINK-36190

АктивенСвязьVLEO
NORAD 67029·PAYLOAD·🇺🇸 United States

Запущен Dec 10, 2025 с Vandenberg Space Force Base

Loading…

Ближайшие Пролёты (ближайшие 24 часа)

TLE

СвежийSource: CelesTrak SupGP

Эпоха: Sep 15, 2026, 04:12 UTC

1 67029C 25293AC  26258.17548611  .00041776  00000+0  35005-2 0  2588
2 67029  70.0020 336.8707 0003418 265.6876 200.8175 14.98314089    16

Отслеживайте STARLINK-36190 в реальном времени с AllMySat

Download on the App Store